Tillbaka till svenska Fidonet
English   Information   Debug  
FILM   0/18
FNEWS_PUBLISH   4983
FN_SYSOP   42232
FN_SYSOP_OLD1   71952
FTP_FIDO   0/2
FTSC_PUBLIC   0/13976
FUNNY   0/4886
GENEALOGY.EUR   0/71
GET_INFO   105
GOLDED   0/408
HAM   10896/16725
HOLYSMOKE   0/6791
HOT_SITES   0/1
HTMLEDIT   0/71
HUB203   466
HUB_100   264
HUB_400   39
HUMOR   0/29
IC   138/2851
INTERNET   0/424
INTERUSER   0/3
IP_CONNECT   719
JAMNNTPD   0/233
JAMTLAND   0/47
KATTY_KORNER   0/41
LAN   0/16
LINUX-USER   0/19
LINUXHELP   0/1155
LINUX   0/22389
LINUX_BBS   0/957
mail   18.68
mail_fore_ok   249
MENSA   0/341
MODERATOR   0/102
MONTE   0/992
MOSCOW_OKLAHOMA   0/1245
MUFFIN   0/783
MUSIC   0/321
N203_STAT   938
N203_SYSCHAT   313
NET203   321
NET204   69
NET_DEV   0/10
NORD.ADMIN   0/101
NORD.CHAT   0/2572
NORD.FIDONET   189
NORD.HARDWARE   0/28
NORD.KULTUR   0/114
NORD.PROG   0/32
NORD.SOFTWARE   0/88
NORD.TEKNIK   0/58
NORD   0/453
OCCULT_CHAT   0/93
OS2BBS   0/787
OS2DOSBBS   0/580
OS2HW   0/42
OS2INET   0/37
OS2LAN   0/134
OS2PROG   0/36
OS2REXX   0/113
OS2USER-L   207
OS2   0/4831
OSDEBATE   0/18996
PASCAL   0/490
PERL   0/457
PHP   0/45
POINTS   0/405
POLITICS   0/29554
POL_INC   7393/14731
PSION   103
R20_ADMIN   1133
R20_AMATORRADIO   0/2
R20_BEST_OF_FIDONET   16
R20_CHAT   0/897
R20_DEPP   0/3
R20_DEV   400
R20_ECHO2   1890
R20_ECHOPRES   0/35
R20_ESTAT   0/719
R20_FIDONETPROG...
...RAM.MYPOINT
  0/2
R20_FIDONETPROGRAM   0/22
R20_FIDONET   0/248
R20_FILEFIND   0/24
R20_FILEFOUND   0/22
R20_HIFI   0/3
R20_INFO2   3783
R20_INTERNET   0/12940
R20_INTRESSE   0/60
R20_INTR_KOM   0/99
R20_KANDIDAT.CHAT   42
R20_KANDIDAT   28
R20_KOM_DEV   112
R20_KONTROLL   0/13360
R20_KORSET   0/18
R20_LOKALTRAFIK   0/24
R20_MODERATOR   0/1852
R20_NC   76
R20_NET200   245
R20_NETWORK.OTH...
...ERNETS
  0/13
R20_OPERATIVSYS...
...TEM.LINUX
  0/44
R20_PROGRAMVAROR   0/1
R20_REC2NEC   534
R20_SFOSM   0/341
R20_SF   0/108
R20_SPRAK.ENGLISH   0/1
R20_SQUISH   107
R20_TEST   2
R20_WORST_OF_FIDONET   20
RAR   0/9
RA_MULTI   106
RA_UTIL   0/162
REGCON.EUR   0/2069
REGCON   0/13
SCIENCE   0/1206
SF   0/239
SHAREWARE_SUPPORT   0/5146
SHAREWRE   0/14
SIMPSONS   0/169
STATS_OLD1   0/2539.065
STATS_OLD2   0/2530
STATS_OLD3   0/2395.095
STATS_OLD4   0/1692.25
SURVIVOR   0/495
SYSOPS_CORNER   0/3
SYSOP   0/84
TAGLINES   0/112
TEAMOS2   0/4530
TECH   0/2617
TEST.444   0/105
TRAPDOOR   0/19
TREK   0/755
TUB   0/290
UFO   0/40
UNIX   0/1316
USA_EURLINK   0/102
USR_MODEMS   0/1
VATICAN   0/2740
VIETNAM_VETS   0/14
VIRUS   0/378
VIRUS_INFO   0/201
VISUAL_BASIC   0/473
WHITEHOUSE   0/5187
WIN2000   0/101
WIN32   0/30
WIN95   347/4291
WIN95_OLD1   0/70272
WINDOWS   1312/1517
WWB_SYSOP   0/419
WWB_TECH   733/810
ZCC-PUBLIC   0/1
ZEC   4

 
4DOS   0/134
ABORTION   0/7
ALASKA_CHAT   0/506
ALLFIX_FILE   0/1313
ALLFIX_FILE_OLD1   0/7997
ALT_DOS   0/152
AMATEUR_RADIO   0/1039
AMIGASALE   0/14
AMIGA   0/331
AMIGA_INT   0/1
AMIGA_PROG   0/20
AMIGA_SYSOP   0/26
ANIME   0/15
ARGUS   0/924
ASCII_ART   0/340
ASIAN_LINK   0/651
ASTRONOMY   0/417
AUDIO   0/92
AUTOMOBILE_RACING   0/105
BABYLON5   0/17862
BAG   135
BATPOWER   0/361
BBBS.ENGLISH   0/382
BBSLAW   0/109
BBS_ADS   0/5290
BBS_INTERNET   0/507
BIBLE   0/3563
BINKD   0/1119
BINKLEY   0/215
BLUEWAVE   0/2173
CABLE_MODEMS   0/25
CBM   0/46
CDRECORD   0/66
CDROM   0/20
CLASSIC_COMPUTER   0/378
COMICS   0/15
CONSPRCY   0/899
COOKING   42028
COOKING_OLD1   0/24719
COOKING_OLD2   0/40862
COOKING_OLD3   0/37489
COOKING_OLD4   0/35496
COOKING_OLD5   9370
C_ECHO   0/189
C_PLUSPLUS   0/31
DIRTY_DOZEN   0/201
DOORGAMES   0/2333
DOS_INTERNET   0/196
duplikat   6102
ECHOLIST   15878/18295
EC_SUPPORT   0/318
ELECTRONICS   0/359
ELEKTRONIK.GER   1534
ENET.LINGUISTIC   0/13
ENET.POLITICS   0/4
ENET.SOFT   0/11701
ENET.SYSOP   34336
ENET.TALKS   0/32
ENGLISH_TUTOR   0/2000
EVOLUTION   0/1335
FDECHO   0/217
FDN_ANNOUNCE   4953/7068
FIDONEWS   25122
FIDONEWS_OLD1   0/49742
FIDONEWS_OLD2   0/35949
FIDONEWS_OLD3   0/30874
FIDONEWS_OLD4   0/37224
FIDO_SYSOP   12973
FIDO_UTIL   0/180
FILEFIND   0/209
FILEGATE   0/212
Möte HAM, 16725 texter
 lista första sista föregående nästa
Text 942, 764 rader
Skriven 2006-04-07 02:18:24 av Amsat List (1:323/120.0)
Ärende: 
========
SB KEPS @ AMSAT  $ORB06096.O
Orbital Elements  06096.OSCAR

HR AMSAT ORBITAL ELEMENTS FOR OSCAR SATELLITES
FROM WA5QGD FORT WORTH,TX April 6, 2006
Send SUBSCRIBE KEPS/UNSUBSCRIBE KEPS to majordomo@amsat.org only
BID: ORB06096.O
TO ALL RADIO AMATEURS BT

Satellite: AO-07
Catalog number: 07530
Epoch time:      06095.96174605
Element set:    0576
Inclination:      101.5772 deg
RA of node:       140.6756 deg
Eccentricity:    0.0011817
Arg of perigee:   027.8560 deg
Mean anomaly:     332.3144 deg
Mean motion:   12.53572183 rev/day
Decay rate:       -2.8e-07 rev/day^2
Epoch rev:           43633
Checksum:              294

Satellite: AO-10
Catalog number: 14129
Epoch time:      06093.97723069
Element set:     271
Inclination:      027.4540 deg
RA of node:       341.5337 deg
Eccentricity:    0.6029169
Arg of perigee:   274.2857 deg
Mean anomaly:     023.2382 deg
Mean motion:   02.05862375 rev/day
Decay rate:       3.34e-06 rev/day^2
Epoch rev:           17152
Checksum:              299

Satellite: UO-11
Catalog number: 14781
Epoch time:      06096.42343029
Element set:      34
Inclination:      098.2100 deg
RA of node:       105.1121 deg
Eccentricity:    0.0009810
Arg of perigee:   131.2994 deg
Mean anomaly:     228.9068 deg
Mean motion:   14.79400360 rev/day
Decay rate:       1.37e-06 rev/day^2
Epoch rev:           18515
Checksum:              266

Satellite: RS-10/11
Catalog number: 18129
Epoch time:      06095.88181908
Element set:     956
Inclination:      082.9292 deg
RA of node:       021.6401 deg
Eccentricity:    0.0010598
Arg of perigee:   300.6065 deg
Mean anomaly:     059.4047 deg
Mean motion:   13.72772463 rev/day
Decay rate:        3.3e-07 rev/day^2
Epoch rev:           94123
Checksum:              303

Satellite: RS-15
Catalog number: 23439
Epoch time:      06095.90965169
Element set:    0970
Inclination:      064.8231 deg
RA of node:       354.1239 deg
Eccentricity:    0.0167833
Arg of perigee:   266.4931 deg
Mean anomaly:     091.6786 deg
Mean motion:   11.27551638 rev/day
Decay rate:       -3.9e-07 rev/day^2
Epoch rev:           46439
Checksum:              344

Satellite: FO-29
Catalog number: 24278
Epoch time:      06096.58417166
Element set:     197
Inclination:      098.5140 deg
RA of node:       111.0123 deg
Eccentricity:    0.0351106
Arg of perigee:   135.4196 deg
Mean anomaly:     227.5762 deg
Mean motion:   13.52920050 rev/day
Decay rate:       -1.3e-07 rev/day^2
Epoch rev:           47586
Checksum:              295

Satellite: SO-33
Catalog number: 25509
Epoch time:      06096.58243730
Element set:     621
Inclination:      031.4294 deg
RA of node:       174.0960 deg
Eccentricity:    0.0354810
Arg of perigee:   210.5411 deg
Mean anomaly:     147.4102 deg
Mean motion:   14.28084390 rev/day
Decay rate:       2.48e-06 rev/day^2
Epoch rev:           38879
Checksum:              291

Satellite: AO-40
Catalog number: 26609
Epoch time:      06096.05655801
Element set:     699
Inclination:      007.1229 deg
RA of node:       247.8424 deg
Eccentricity:    0.7933151
Arg of perigee:   147.5758 deg
Mean anomaly:     305.2279 deg
Mean motion:   01.25580585 rev/day
Decay rate:      .00000000 rev/day^2
Epoch rev:            2494
Checksum:              309

Satellite: VO-52
Catalog number: 28650
Epoch time:      06093.19913367
Element set:     291
Inclination:      097.8747 deg
RA of node:       167.5536 deg
Eccentricity:    0.0026180
Arg of perigee:   244.9873 deg
Mean anomaly:     114.8578 deg
Mean motion:   14.81074255 rev/day
Decay rate:       1.15e-06 rev/day^2
Epoch rev:            4928
Checksum:              337

/EX
SB KEPS @ AMSAT  $ORB06096.D
Orbital Elements  06096.MICROS

HR AMSAT ORBITAL ELEMENTS FOR THE MICROSATS
FROM WA5QGD FORT WORTH,TX April 6, 2006
Send SUBSCRIBE KEPS/UNSUBSCRIBE KEPS to majordomo@amsat.org only
BID: ORB06096.D
TO ALL RADIO AMATEURS BT

Satellite: AO-16
Catalog number: 20439
Epoch time:      06095.60736851
Element set:    0715
Inclination:      098.1906 deg
RA of node:       109.6224 deg
Eccentricity:    0.0011893
Arg of perigee:   053.3117 deg
Mean anomaly:     306.9158 deg
Mean motion:   14.31715059 rev/day
Decay rate:       -2.5e-07 rev/day^2
Epoch rev:           84593
Checksum:              309

Satellite: WO-18
Catalog number: 20441
Epoch time:      06095.94676372
Element set:    0916
Inclination:      098.1958 deg
RA of node:       114.5456 deg
Eccentricity:    0.0012701
Arg of perigee:   050.0117 deg
Mean anomaly:     310.2179 deg
Mean motion:   14.31786170 rev/day
Decay rate:        6.0e-08 rev/day^2
Epoch rev:           84604
Checksum:              292

Satellite: LO-19
Catalog number: 20442
Epoch time:      06095.64983994
Element set:     652
Inclination:      098.1972 deg
RA of node:       119.0749 deg
Eccentricity:    0.0013017
Arg of perigee:   051.6054 deg
Mean anomaly:     308.6306 deg
Mean motion:   14.31959139 rev/day
Decay rate:        6.0e-08 rev/day^2
Epoch rev:           84607
Checksum:              321

Satellite: UO-22
Catalog number: 21575
Epoch time:      06096.45793379
Element set:     668
Inclination:      098.2887 deg
RA of node:       056.4435 deg
Eccentricity:    0.0006521
Arg of perigee:   290.5271 deg
Mean anomaly:     069.5221 deg
Mean motion:   14.39540894 rev/day
Decay rate:        8.2e-07 rev/day^2
Epoch rev:           77269
Checksum:              345

Satellite: KO-23
Catalog number: 22077
Epoch time:      06096.61799501
Element set:     757
Inclination:      066.0832 deg
RA of node:       251.9308 deg
Eccentricity:    0.0003530
Arg of perigee:   180.6459 deg
Mean anomaly:     179.4542 deg
Mean motion:   12.86436029 rev/day
Decay rate:       -3.7e-07 rev/day^2
Epoch rev:           64133
Checksum:              310

